Weather History for Redding, CA

Change the Weather History Date:

Thursday, December 15, 2011

  Actual Average Record
Temperature  
Mean Temperature 48 °F -  
Max Temperature 55 °F 54 °F 72 °F (1998)
Min Temperature 40 °F 36 °F 26 °F (2005)
Degree Days  
Heating Degree Days 17    
Month to date heating degree days 273  
Cooling Degree Days 0    
Month to date cooling degree days 0  
Year to date cooling degree days 1701  
Moisture  
Dew Point 38 °F    
Average Humidity 73    
Maximum Humidity 96    
Minimum Humidity 50    
Precipitation  
Precipitation 0.08 in 0.21 in 1.47 in (2009)
Month to date precipitation 0.09 2.82  
Year to date precipitation 26.33 31.17  
Since 1 July precipitation 6.04 10.31  
Sea Level Pressure  
Sea Level Pressure 30.28 in    
Wind  
Wind Speed 5 mph (North)    
Max Wind Speed 13 mph    
Max Gust Speed 16 mph    
Visibility 8 miles    
Events Rain    
T = Trace of Precipitation, MM = Missing Value Source: NWS Daily Summary

Daily Weather History Graph

Daily Weather History Graph

Search for Another Location

Airport:

Trip Planner

Search our weather history database for the weather conditions in past years. The results will help you decide how hot, cold, wet, or windy it might be!

Date:

Astronomy

Dec. 15, 2011 Rise Set
Actual Time 7:25 AM PST 4:43 PM PST
Civil Twilight 6:54 AM PST 5:14 PM PST
Nautical Twilight 6:20 AM PST 5:48 PM PST
Astronomical Twilight 5:47 AM PST 6:21 PM PST
Moon 10:16 PM PST (12/15) 10:43 AM PST (12/15)
Length of Visible Light 10h 19m
Length of Day
9h 17m
Waning Gibbous, 73% of the Moon is Illuminated
Dec 15
Waning Gibbous
Dec 17
Last Quarter
Dec 24
New
Dec 31
First Quarter
Jan 8
Full

Hourly Weather History & Observations

Time (PST) Temp. Windchill Dew Point Humidity Pressure Visibility Wind Dir Wind Speed Gust Speed Precip Events Conditions
12:53 AM 41.0 °F 39.0 °F 37.9 °F 89% 30.21 in 10.0 mi North 3.5 mph - 0.00 in   Overcast
1:53 AM 41.0 °F - 39.0 °F 93% 30.21 in 8.0 mi Calm Calm - 0.00 in Rain Light Rain
2:02 AM 41.0 °F - 39.2 °F 93% 30.22 in 6.0 mi Calm Calm - 0.00 in Rain Light Rain
2:53 AM 41.0 °F - 39.9 °F 96% 30.22 in 6.0 mi Calm Calm - 0.02 in Rain Light Rain
3:53 AM 42.1 °F 38.4 °F 41.0 °F 96% 30.23 in 4.0 mi NNE 5.8 mph - 0.04 in Rain Light Rain
4:53 AM 42.1 °F - 41.0 °F 96% 30.25 in 4.0 mi Calm Calm - 0.01 in Rain Light Rain
5:53 AM 42.8 °F 39.3 °F 41.0 °F 93% 30.26 in 4.0 mi NNE 5.8 mph - N/A   Overcast
6:07 AM 42.8 °F 39.3 °F 41.0 °F 93% 30.27 in 5.0 mi North 5.8 mph - N/A   Overcast
6:53 AM 42.1 °F 39.2 °F 41.0 °F 96% 30.29 in 5.0 mi NNE 4.6 mph - N/A   Overcast
7:39 AM 42.8 °F 40.1 °F 39.2 °F 87% 30.29 in 9.0 mi North 4.6 mph - 0.01 in   Overcast
7:53 AM 42.1 °F 39.2 °F 41.0 °F 96% 30.30 in 8.0 mi NW 4.6 mph - 0.01 in   Overcast
8:53 AM 43.0 °F 41.3 °F 41.0 °F 93% 30.33 in 6.0 mi North 3.5 mph - N/A   Overcast
9:53 AM 44.1 °F 41.5 °F 41.0 °F 89% 30.35 in 9.0 mi North 4.6 mph - N/A   Overcast
10:34 AM 44.6 °F 43.1 °F 41.0 °F 87% 30.34 in 10.0 mi NNW 3.5 mph - N/A   Overcast
10:53 AM 48.0 °F - 42.1 °F 80% 30.34 in 10.0 mi NW 5.8 mph - N/A   Scattered Clouds
11:53 AM 50.0 °F - 39.9 °F 68% 30.31 in 10.0 mi NNW 5.8 mph - N/A   Scattered Clouds
12:53 PM 53.1 °F - 37.9 °F 57% 30.29 in 10.0 mi North 10.4 mph - N/A   Clear
1:53 PM 54.0 °F - 36.0 °F 51% 30.27 in 10.0 mi North 10.4 mph - N/A   Clear
2:53 PM 55.0 °F - 37.9 °F 53% 30.26 in 10.0 mi North 9.2 mph - N/A   Clear
3:53 PM 55.0 °F - 37.0 °F 51% 30.24 in 10.0 mi NNW 8.1 mph - N/A   Clear
4:53 PM 53.1 °F - 37.0 °F 55% 30.24 in 10.0 mi NNW 10.4 mph - N/A   Clear
5:53 PM 50.0 °F - 37.0 °F 61% 30.26 in 10.0 mi NW 3.5 mph - N/A   Clear
6:53 PM 50.0 °F - 35.6 °F 58% 30.27 in 10.0 mi NNW 4.6 mph - N/A   Clear
7:53 PM 52.0 °F - 34.0 °F 50% 30.29 in 10.0 mi North 12.7 mph - N/A   Clear
8:53 PM 52.0 °F - 30.9 °F 45% 30.30 in 10.0 mi North 16.1 mph - N/A   Clear
9:53 PM 51.1 °F - 30.9 °F 46% 30.31 in 10.0 mi North 18.4 mph 26.5 mph N/A   Clear
10:53 PM 51.1 °F - 30.0 °F 44% 30.32 in 10.0 mi North 12.7 mph 20.7 mph N/A   Clear
11:53 PM 51.1 °F - 30.0 °F 44% 30.32 in 10.0 mi North 13.8 mph 23.0 mph N/A   Clear